| time (UTC) | temp F | wind direction | speed MPH | gust MPH | rain 1hr in | rain 24hr in | rain mn in | humidity % | barometer mb |
| 20260510131017 | 50 | 248 | 1.0 | 6.0 | 0.00 | 0.00 | 0.00 | 97 | 1012.1 |
| 20260510130016 | 50 | 0.0 | 1.0 | 0.00 | 0.00 | 0.00 | 97 | 1012.0 | |
| 20260510125018 | 50 | 248 | 1.0 | 3.0 | 0.00 | 0.00 | 0.00 | 97 | 1011.9 |
| 20260510124017 | 50 | 0.0 | 3.0 | 0.00 | 0.00 | 0.00 | 97 | 1011.8 | |
| 20260510123017 | 50 | 0.0 | 2.0 | 0.00 | 0.00 | 0.00 | 97 | 1011.7 | |
| 20260510122018 | 50 | 0.0 | 1.0 | 0.00 | 0.00 | 0.00 | 97 | 1011.8 | |
| 20260510121016 | 49 | 248 | 1.0 | 3.0 | 0.00 | 0.00 | 0.00 | 97 | 1011.9 |
| 20260510120017 | 49 | 0.0 | 2.0 | 0.00 | 0.00 | 0.00 | 97 | 1011.9 | |
| 20260510115018 | 49 | 0.0 | 2.0 | 0.00 | 0.00 | 0.00 | 97 | 1011.9 | |
| 20260510114017 | 49 | 248 | 1.0 | 4.0 | 0.00 | 0.00 | 0.00 | 97 | 1011.9 |
| 20260510113017 | 49 | 0.0 | 4.0 | 0.00 | 0.00 | 0.00 | 97 | 1011.7 | |
| 20260510112017 | 49 | 248 | 1.0 | 3.0 | 0.00 | 0.00 | 0.00 | 97 | 1011.8 |
| 20260510111018 | 49 | 0.0 | 4.0 | 0.00 | 0.00 | 0.00 | 97 | 1011.6 | |
| 20260510110037 | 49 | 225 | 1.0 | 3.0 | 0.00 | 0.00 | 0.00 | 97 | 1011.6 |
| 20260510105057 | 49 | 0.0 | 4.0 | 0.00 | 0.00 | 0.00 | 97 | 1011.6 | |
| 20260510104017 | 49 | 0.0 | 4.0 | 0.00 | 0.00 | 0.00 | 97 | 1011.6 | |
| 20260510103037 | 49 | 0.0 | 3.0 | 0.00 | 0.00 | 0.00 | 97 | 1011.2 | |
| 20260510102016 | 49 | 0.0 | 2.0 | 0.00 | 0.00 | 0.00 | 97 | 1011.1 | |
| 20260510101016 | 49 | 0.0 | 1.0 | 0.00 | 0.00 | 0.00 | 97 | 1010.9 | |
| 20260510100017 | 49 | 0.0 | 2.0 | 0.00 | 0.00 | 0.00 | 97 | 1010.3 | |
| 20260510095016 | 49 | 225 | 1.0 | 3.0 | 0.00 | 0.00 | 0.00 | 97 | 1010.4 |
| 20260510094017 | 49 | 180 | 1.0 | 5.0 | 0.00 | 0.00 | 0.00 | 97 | 1010.3 |
| 20260510093016 | 49 | 0.0 | 2.0 | 0.00 | 0.00 | 0.00 | 97 | 1010.5 | |
| 20260510092016 | 49 | 0.0 | 2.0 | 0.00 | 0.00 | 0.00 | 97 | 1010.3 | |
| 20260510091017 | 49 | 0.0 | 1.0 | 0.00 | 0.00 | 0.00 | 97 | 1010.3 | |
| 20260510090037 | 49 | 0.0 | 2.0 | 0.00 | 0.00 | 0.00 | 97 | 1010.7 | |
| 20260510085017 | 49 | 0.0 | 1.0 | 0.00 | 0.00 | 0.00 | 97 | 1010.8 | |
| 20260510084016 | 49 | 0.0 | 1.0 | 0.00 | 0.00 | 0.00 | 97 | 1010.8 | |
| 20260510083017 | 49 | 248 | 1.0 | 3.0 | 0.00 | 0.00 | 0.00 | 97 | 1010.9 |
| 20260510082037 | 49 | 0.0 | 2.0 | 0.00 | 0.00 | 0.00 | 97 | 1010.8 | |
| 20260510081057 | 49 | 0.0 | 2.0 | 0.00 | 0.00 | 0.00 | 97 | 1010.9 | |
| 20260510080016 | 49 | 0.0 | 2.0 | 0.00 | 0.00 | 0.00 | 97 | 1010.7 | |
| 20260510075057 | 49 | 0.0 | 1.0 | 0.00 | 0.00 | 0.00 | 97 | 1010.8 | |
| 20260510074016 | 49 | 0.0 | 2.0 | 0.00 | 0.00 | 0.00 | 97 | 1010.6 | |
| 20260510073017 | 49 | 225 | 1.0 | 5.0 | 0.00 | 0.00 | 0.00 | 97 | 1010.5 |
| 20260510072017 | 49 | 0.0 | 1.0 | 0.00 | 0.00 | 0.00 | 97 | 1010.4 | |
| 20260510071017 | 49 | 248 | 1.0 | 3.0 | 0.00 | 0.00 | 0.00 | 97 | 1010.5 |
| 20260510070016 | 49 | 0.0 | 1.0 | 0.00 | 0.00 | 0.00 | 97 | 1010.3 | |
| 20260510065017 | 49 | 0.0 | 1.0 | 0.00 | 0.00 | 0.00 | 96 | 1010.4 | |
| 20260510064016 | 49 | 0.0 | 1.0 | 0.00 | 0.00 | 0.00 | 97 | 1010.4 | |
| 20260510063018 | 49 | 0.0 | 1.0 | 0.00 | 0.00 | 0.00 | 97 | 1010.3 | |
| 20260510062017 | 49 | 0.0 | 3.0 | 0.00 | 0.00 | 0.00 | 96 | 1010.3 | |
| 20260510061037 | 49 | 0.0 | 2.0 | 0.00 | 0.00 | 0.00 | 96 | 1010.3 | |
| 20260510060016 | 49 | 0.0 | 1.0 | 0.00 | 0.00 | 0.00 | 96 | 1010.2 | |
| 20260510055018 | 49 | 0.0 | 1.0 | 0.00 | 0.00 | 0.00 | 96 | 1010.2 | |
| 20260510054017 | 49 | 0.0 | 1.0 | 0.00 | 0.00 | 0.00 | 96 | 1010.5 | |
| 20260510053037 | 49 | 0.0 | 0.0 | 0.00 | 0.00 | 0.00 | 96 | 1010.2 | |
| 20260510052037 | 49 | 0.0 | 3.0 | 0.00 | 0.00 | 0.00 | 96 | 1010.2 | |
| 20260510051016 | 49 | 0.0 | 1.0 | 0.00 | 0.00 | 0.00 | 96 | 1010.4 | |
| 20260510050017 | 50 | 0.0 | 2.0 | 0.00 | 0.00 | 0.00 | 96 | 1010.3 | |
| 20260510045017 | 50 | 0.0 | 4.0 | 0.00 | 0.00 | 0.00 | 96 | 1010.2 | |
| 20260510044037 | 50 | 0.0 | 1.0 | 0.00 | 0.00 | 0.00 | 96 | 1010.4 | |
| 20260510043017 | 50 | 0.0 | 2.0 | 0.00 | 0.00 | 0.00 | 96 | 1010.6 | |
| 20260510042017 | 50 | 0.0 | 1.0 | 0.00 | 0.00 | 0.00 | 96 | 1010.6 | |
| 20260510041016 | 50 | 0.0 | 0.0 | 0.00 | 0.00 | 0.00 | 96 | 1010.6 | |
| 20260510040018 | 50 | 0.0 | 4.0 | 0.00 | 0.00 | 0.00 | 96 | 1010.6 | |
| 20260510035017 | 50 | 0.0 | 3.0 | 0.00 | 0.00 | 0.00 | 96 | 1010.6 | |
| 20260510034038 | 50 | 0.0 | 1.0 | 0.00 | 0.00 | 0.00 | 96 | 1010.5 | |
| 20260510033037 | 50 | 0.0 | 1.0 | 0.00 | 0.00 | 0.00 | 96 | 1010.5 | |
| 20260510032017 | 50 | 0.0 | 0.0 | 0.00 | 0.00 | 0.00 | 96 | 1010.3 | |
| 20260510031018 | 50 | 0.0 | 2.0 | 0.00 | 0.00 | 0.00 | 96 | 1010.3 | |
| 20260510030017 | 50 | 0.0 | 1.0 | 0.00 | 0.00 | 0.00 | 96 | 1010.5 | |
| 20260510025017 | 50 | 0.0 | 2.0 | 0.00 | 0.00 | 0.00 | 96 | 1010.2 | |
| 20260510024018 | 50 | 0.0 | 8.0 | 0.00 | 0.00 | 0.00 | 96 | 1010.3 | |
| 20260510023017 | 50 | 0.0 | 2.0 | 0.00 | 0.00 | 0.00 | 96 | 1010.4 | |
| 20260510022037 | 50 | 113 | 1.0 | 4.0 | 0.00 | 0.00 | 0.00 | 96 | 1010.6 |
| 20260510021018 | 50 | 0.0 | 2.0 | 0.00 | 0.00 | 0.00 | 96 | 1010.8 | |
| 20260510020017 | 50 | 0.0 | 0.0 | 0.00 | 0.00 | 0.00 | 96 | 1011.0 | |
| 20260510015017 | 50 | 0.0 | 2.0 | 0.00 | 0.00 | 0.00 | 96 | 1010.9 | |
| 20260510014018 | 50 | 0.0 | 2.0 | 0.00 | 0.00 | 0.00 | 96 | 1011.0 | |
| 20260510013037 | 50 | 0.0 | 3.0 | 0.00 | 0.00 | 0.00 | 96 | 1010.9 | |
| 20260510012017 | 50 | 0.0 | 1.0 | 0.00 | 0.00 | 0.00 | 96 | 1010.7 | |
| 20260510011018 | 50 | 0.0 | 1.0 | 0.00 | 0.00 | 0.00 | 96 | 1010.5 | |
| 20260510010017 | 50 | 0.0 | 2.0 | 0.00 | 0.00 | 0.00 | 96 | 1010.3 | |
| 20260510005017 | 50 | 0.0 | 1.0 | 0.00 | 0.00 | 0.00 | 96 | 1010.3 | |
| 20260510004018 | 50 | 0.0 | 1.0 | 0.00 | 0.00 | 0.00 | 96 | 1010.2 | |
| 20260510003017 | 50 | 0.0 | 0.0 | 0.00 | 0.00 | 0.00 | 96 | 1010.3 | |
| 20260510002018 | 50 | 0.0 | 1.0 | 0.00 | 0.00 | 0.00 | 96 | 1010.2 | |
| 20260510001017 | 50 | 0.0 | 3.0 | 0.00 | 0.00 | 0.00 | 96 | 1010.2 | |
| 20260510000018 | 50 | 0.0 | 0.0 | 0.00 | 0.00 | 0.00 | 96 | 1010.2 | |
| 20260509235017 | 50 | 180 | 1.0 | 4.0 | 0.00 | 0.00 | 0.00 | 96 | 1010.4 |
| 20260509234017 | 50 | 0.0 | 0.0 | 0.00 | 0.00 | 0.00 | 96 | 1010.4 | |
| 20260509233018 | 50 | 0.0 | 1.0 | 0.00 | 0.00 | 0.00 | 96 | 1010.3 | |
| 20260509232017 | 50 | 0.0 | 1.0 | 0.00 | 0.00 | 0.00 | 96 | 1010.2 | |
| 20260509231018 | 50 | 0.0 | 3.0 | 0.00 | 0.00 | 0.00 | 96 | 1010.2 | |
| 20260509230018 | 50 | 0.0 | 4.0 | 0.00 | 0.00 | 0.00 | 96 | 1010.2 | |
| 20260509225017 | 50 | 0.0 | 1.0 | 0.00 | 0.00 | 0.00 | 96 | 1010.2 | |
| 20260509224017 | 50 | 0.0 | 2.0 | 0.00 | 0.00 | 0.00 | 96 | 1010.1 | |
| 20260509223037 | 50 | 0.0 | 0.0 | 0.00 | 0.00 | 0.00 | 96 | 1010.0 | |
| 20260509222037 | 50 | 0.0 | 3.0 | 0.00 | 0.00 | 0.00 | 96 | 1010.1 | |
| 20260509221018 | 50 | 0.0 | 1.0 | 0.00 | 0.00 | 0.00 | 96 | 1010.1 | |
| 20260509220017 | 50 | 0.0 | 1.0 | 0.00 | 0.00 | 0.00 | 96 | 1010.0 | |
| 20260509215017 | 49 | 0.0 | 2.0 | 0.00 | 0.00 | 0.00 | 96 | 1010.0 | |
| 20260509214038 | 49 | 0.0 | 0.0 | 0.00 | 0.00 | 0.00 | 96 | 1010.1 | |
| 20260509213017 | 50 | 0.0 | 0.0 | 0.00 | 0.00 | 0.00 | 96 | 1010.3 | |
| 20260509212017 | 50 | 0.0 | 0.0 | 0.00 | 0.00 | 0.00 | 96 | 1010.4 | |
| 20260509211018 | 49 | 0.0 | 0.0 | 0.00 | 0.00 | 0.00 | 96 | 1010.4 | |
| 20260509210017 | 49 | 0.0 | 2.0 | 0.00 | 0.00 | 0.00 | 95 | 1010.6 | |
| 20260509205017 | 49 | 0.0 | 0.0 | 0.00 | 0.00 | 0.00 | 95 | 1010.7 | |
| 20260509204017 | 49 | 0.0 | 0.0 | 0.00 | 0.00 | 0.00 | 95 | 1010.8 | |
| 20260509203038 | 49 | 0.0 | 0.0 | 0.00 | 0.00 | 0.00 | 95 | 1011.1 | |
| 20260509202017 | 49 | 0.0 | 0.0 | 0.00 | 0.00 | 0.00 | 95 | 1011.2 | |
| 20260509201038 | 49 | 0.0 | 1.0 | 0.00 | 0.00 | 0.00 | 95 | 1011.1 | |
| 20260509200017 | 49 | 0.0 | 1.0 | 0.00 | 0.00 | 0.00 | 95 | 1011.1 | |
| 20260509195137 | 49 | 0.0 | 0.0 | 0.00 | 0.00 | 0.00 | 95 | 1010.9 | |
| 20260509194037 | 49 | 0.0 | 0.0 | 0.00 | 0.00 | 0.00 | 95 | 1010.9 | |
| 20260509193017 | 49 | 0.0 | 0.0 | 0.00 | 0.00 | 0.00 | 95 | 1011.0 | |
| 20260509192017 | 49 | 0.0 | 0.0 | 0.00 | 0.00 | 0.00 | 95 | 1010.9 | |
| 20260509191017 | 49 | 0.0 | 0.0 | 0.00 | 0.00 | 0.00 | 95 | 1010.9 | |
| 20260509190058 | 48 | 0.0 | 0.0 | 0.00 | 0.00 | 0.00 | 95 | 1010.8 | |
| 20260509185037 | 48 | 0.0 | 0.0 | 0.00 | 0.00 | 0.00 | 95 | 1010.7 | |
| 20260509184017 | 48 | 0.0 | 1.0 | 0.00 | 0.00 | 0.00 | 95 | 1010.8 | |
| 20260509183017 | 48 | 0.0 | 0.0 | 0.00 | 0.00 | 0.00 | 95 | 1011.0 | |
| 20260509182017 | 48 | 0.0 | 1.0 | 0.00 | 0.00 | 0.00 | 95 | 1011.1 | |
| 20260509181038 | 47 | 0.0 | 0.0 | 0.00 | 0.00 | 0.00 | 95 | 1011.0 | |
| 20260509180017 | 47 | 0.0 | 1.0 | 0.00 | 0.00 | 0.00 | 95 | 1011.1 | |
| 20260509175017 | 46 | 0.0 | 0.0 | 0.00 | 0.00 | 0.00 | 95 | 1011.0 | |
| 20260509174017 | 46 | 0.0 | 0.0 | 0.00 | 0.00 | 0.00 | 95 | 1011.1 | |
| 20260509173018 | 46 | 0.0 | 1.0 | 0.00 | 0.00 | 0.00 | 94 | 1011.4 | |
| 20260509172017 | 46 | 0.0 | 0.0 | 0.00 | 0.00 | 0.00 | 94 | 1011.6 | |
| 20260509171037 | 46 | 0.0 | 1.0 | 0.00 | 0.00 | 0.00 | 94 | 1011.8 | |
| 20260509170017 | 45 | 0.0 | 1.0 | 0.00 | 0.00 | 0.00 | 94 | 1011.8 | |
| 20260509165037 | 45 | 0.0 | 0.0 | 0.00 | 0.00 | 0.00 | 94 | 1011.7 | |
| 20260509164017 | 45 | 0.0 | 1.0 | 0.00 | 0.00 | 0.00 | 94 | 1011.9 | |
| 20260509163017 | 45 | 0.0 | 0.0 | 0.00 | 0.00 | 0.00 | 94 | 1012.1 | |
| 20260509162038 | 44 | 0.0 | 2.0 | 0.00 | 0.00 | 0.00 | 94 | 1012.0 | |
| 20260509161017 | 44 | 0.0 | 0.0 | 0.00 | 0.00 | 0.00 | 94 | 1012.0 | |
| 20260509160017 | 44 | 0.0 | 0.0 | 0.00 | 0.00 | 0.00 | 94 | 1012.1 | |
| 20260509155017 | 44 | 0.0 | 0.0 | 0.00 | 0.00 | 0.00 | 94 | 1011.9 | |
| 20260509154017 | 44 | 0.0 | 0.0 | 0.00 | 0.00 | 0.00 | 94 | 1011.7 | |
| 20260509153017 | 44 | 0.0 | 1.0 | 0.00 | 0.00 | 0.00 | 94 | 1011.8 | |
| 20260509152017 | 43 | 0.0 | 2.0 | 0.00 | 0.00 | 0.00 | 93 | 1011.8 | |
| 20260509151037 | 43 | 0.0 | 2.0 | 0.00 | 0.00 | 0.00 | 94 | 1011.9 | |
| 20260509150017 | 43 | 0.0 | 2.0 | 0.00 | 0.00 | 0.00 | 93 | 1011.9 | |
| 20260509145017 | 43 | 0.0 | 1.0 | 0.00 | 0.00 | 0.00 | 93 | 1012.0 | |
| 20260509144017 | 42 | 0.0 | 2.0 | 0.00 | 0.00 | 0.00 | 93 | 1012.1 | |
| 20260509143017 | 42 | 0.0 | 2.0 | 0.00 | 0.00 | 0.00 | 93 | 1012.1 | |
| 20260509142017 | 42 | 90 | 1.0 | 3.0 | 0.00 | 0.00 | 0.00 | 93 | 1012.0 |
| 20260509141037 | 41 | 0.0 | 2.0 | 0.00 | 0.00 | 0.00 | 93 | 1012.3 | |
| 20260509140038 | 41 | 0.0 | 2.0 | 0.00 | 0.00 | 0.00 | 93 | 1012.4 | |
| 20260509135016 | 41 | 0.0 | 4.0 | 0.00 | 0.00 | 0.00 | 93 | 1012.4 | |
| 20260509134017 | 41 | 0.0 | 4.0 | 0.00 | 0.00 | 0.00 | 93 | 1012.5 | |
| 20260509133017 | 41 | 0.0 | 2.0 | 0.00 | 0.00 | 0.00 | 93 | 1012.6 | |
| 20260509132017 | 41 | 0.0 | 2.0 | 0.00 | 0.00 | 0.00 | 93 | 1012.7 |